Theta_e
317 316 316 316 318 323 331 347 354 353 350 354 355 355 352 346 348 350 348 339 341 340 340 340 340 339 338 342 343 344 341 336 337 345 348 344 343 345 345 345 344 340 346 345
316 315 315 317 318 322 325 336 349 347 344 350 353 353 349 349 349 349 345 342 342 341 340 340 342 341 343 345 347 347 344 341 341 344 343 340 343 344 344 345 345 342 341 348
316 318 318 318 317 318 319 340 349 351 348 347 351 352 355 352 351 350 346 341 342 342 342 340 343 343 344 345 345 347 346 344 343 344 342 341 344 347 346 345 344 345 343 345
317 319 320 318 317 318 319 326 338 351 349 349 348 354 358 354 352 350 348 342 342 342 342 341 344 344 344 345 346 346 346 346 344 343 345 342 346 349 347 345 345 344 344 343
318 320 317 317 318 319 321 321 327 346 345 341 343 340 349 353 356 352 346 347 340 341 342 342 342 345 345 346 346 346 346 346 346 343 344 342 346 348 347 344 346 345 345 342
320 323 322 320 322 320 321 321 317 319 327 336 338 335 337 357 355 352 348 347 342 339 342 341 342 344 344 345 347 348 346 346 345 344 344 342 344 347 349 349 347 348 346 345
323 324 323 323 323 322 320 314 316 318 319 322 329 339 340 343 347 350 348 346 344 339 341 340 342 342 344 344 345 350 347 346 345 345 344 344 346 347 348 350 349 348 345 345
323 324 324 325 322 322 320 314 315 318 319 320 334 343 342 339 343 343 344 342 345 342 340 340 341 342 345 345 346 349 350 347 346 346 345 347 348 347 345 348 349 348 345 347
320 323 324 324 324 322 322 320 314 316 316 323 330 335 335 337 337 339 340 341 344 344 341 342 343 343 346 347 347 348 350 350 349 347 346 345 349 350 347 345 347 347 347 347
321 323 323 324 323 322 322 319 321 314 319 320 323 338 335 339 340 342 342 341 344 344 343 343 343 342 347 348 348 349 350 350 349 349 348 346 346 349 349 350 348 347 347 347
321 320 324 325 323 322 321 320 318 316 316 320 320 324 332 334 341 346 345 344 345 346 345 344 344 343 341 345 349 351 350 350 352 352 351 349 348 348 348 349 351 350 346 349
320 319 322 324 322 320 319 320 316 317 320 320 320 324 325 332 344 343 346 344 345 346 345 345 346 346 344 341 348 353 352 351 351 353 353 351 351 350 350 348 350 350 351 350
324 320 322 323 322 322 324 321 317 315 315 319 321 322 343 339 344 346 349 346 343 341 345 346 346 343 342 344 345 353 354 353 353 354 353 355 354 354 353 353 349 348 350 353
322 319 321 324 324 323 328 326 322 318 319 320 320 331 350 343 344 345 344 342 342 343 343 346 348 346 346 343 345 352 354 354 354 354 354 354 355 355 353 352 352 351 349 350
324 322 324 323 324 327 327 327 327 326 319 322 323 338 342 343 339 339 338 337 343 339 344 348 345 337 347 347 348 354 354 355 355 356 356 355 353 353 353 353 351 348 341 342
323 329 327 326 325 327 328 326 326 326 328 328 327 329 333 343 340 339 335 336 340 346 347 345 348 346 349 348 349 354 354 354 356 357 357 356 355 354 356 355 353 351 350 349
326 327 332 336 332 332 328 326 326 326 329 330 331 326 330 336 341 337 342 344 347 347 350 349 350 353 354 355 354 353 355 355 356 355 355 355 354 352 352 351 352 352 351 351
322 323 331 335 332 338 329 328 329 329 329 331 331 330 332 337 337 340 344 342 340 341 346 336 341 350 355 357 357 357 355 353 351 349 347 345 345 344 343 343 344 343 342 343
317 324 328 334 335 333 334 333 334 332 331 331 332 335 340 344 343 345 343 338 337 335 342 340 344 350 354 355 355 353 350 348 344 340 338 337 336 334 331 329 328 328 328 328
318 319 327 329 335 338 331 334 333 330 331 332 332 333 340 343 348 346 338 340 339 339 342 345 349 349 349 351 350 347 342 339 336 333 329 328 328 326 323 322 321 321 321 321
323 321 324 327 331 330 332 333 330 333 331 330 334 334 336 337 338 338 334 335 336 339 337 347 350 347 347 348 346 340 338 335 331 329 328 325 322 321 320 319 318 317 316 315
333 334 331 327 329 331 331 331 332 329 329 331 338 340 339 339 338 340 341 338 339 335 337 347 345 344 344 345 345 339 335 331 330 328 324 321 319 317 317 316 315 313 313 313
333 333 333 335 333 329 330 332 329 330 330 330 336 338 341 341 341 343 344 342 338 336 342 344 343 341 342 343 343 336 332 330 327 322 320 317 316 315 313 312 311 311 311 310
330 328 330 330 331 332 329 332 331 331 334 332 333 338 337 344 345 343 343 340 339 342 340 340 340 338 339 341 339 337 331 327 323 320 317 316 314 314 314 313 313 312 312 312
323 327 327 329 329 331 334 333 331 329 331 333 334 334 336 337 341 341 340 339 339 340 338 338 337 336 339 339 337 334 329 323 321 319 317 316 315 315 314 314 315 315 315 315
325 327 330 329 332 331 331 330 330 332 332 331 334 335 335 336 338 338 338 337 338 337 337 336 336 336 338 339 336 333 328 323 320 318 317 317 316 316 316 315 315 316 316 316
Wind_Speed
2 3 7 13 8 6 4 3 3 3 5 5 9 6 9 6 12 10 7 11 14 16 18 31 33 32 31 32 34 34 31 29 29 25 22 19 20 16 13 14 17 12 14 10
4 7 13 11 10 8 7 8 4 5 9 8 10 14 13 11 16 17 13 17 17 14 9 17 29 30 33 35 34 34 33 30 29 25 22 19 16 15 15 16 17 15 15 14
8 11 10 11 13 12 11 10 7 8 1 8 5 4 6 8 6 10 8 16 16 19 16 14 24 29 32 31 37 38 37 35 30 26 22 19 15 14 14 16 22 23 17 16
7 13 12 8 10 7 11 11 13 14 6 5 10 4 5 13 12 8 9 8 17 18 18 17 23 28 32 35 36 38 39 38 34 28 27 25 20 14 19 18 24 23 22 19
10 3 7 10 17 10 15 5 7 14 6 2 3 3 6 8 7 16 13 11 17 19 19 19 23 35 36 32 37 39 39 39 38 33 30 29 23 18 19 22 22 23 21 20
9 6 6 9 10 10 8 0 7 4 3 0 9 5 3 8 23 19 15 17 17 16 19 19 29 32 33 32 31 36 38 38 39 36 32 31 26 20 14 27 29 27 24 22
6 9 5 6 6 2 4 7 3 4 3 6 4 4 8 13 9 19 19 18 18 14 18 18 18 24 28 31 31 33 37 37 39 35 31 29 27 24 20 24 30 28 25 27
4 8 5 3 8 8 5 9 6 6 3 6 3 5 7 9 17 17 21 16 16 15 16 18 20 27 29 32 32 31 35 34 39 38 35 32 28 28 28 21 21 27 29 28
6 8 4 6 8 9 6 3 9 5 2 3 4 6 9 7 8 7 11 8 15 19 16 17 17 27 30 33 34 36 34 36 39 40 36 38 33 30 29 27 22 22 23 27
8 5 10 14 1 3 11 5 2 3 3 5 6 4 6 6 13 7 14 11 6 16 11 10 11 20 29 34 35 34 35 38 40 40 39 39 39 34 32 25 28 28 26 26
8 6 18 4 5 8 1 2 1 6 6 6 3 6 9 13 8 10 8 12 14 16 16 15 12 17 21 25 29 34 33 33 32 36 38 37 39 40 35 33 29 26 29 28
12 7 9 14 9 7 9 12 8 5 6 4 5 7 7 5 14 10 6 9 11 12 15 8 7 8 16 28 25 31 32 32 35 37 35 37 37 37 37 40 36 32 30 30
2 2 4 9 7 2 3 5 8 4 4 6 5 7 7 3 9 12 13 9 11 12 8 5 6 7 15 14 24 27 30 33 33 34 34 33 35 36 36 34 35 36 34 29
3 3 5 9 9 3 1 4 2 5 5 5 6 4 3 4 7 5 6 6 5 6 10 9 7 7 16 20 25 29 30 33 35 34 33 31 35 37 35 36 32 22 23 27
4 1 2 6 6 3 1 2 7 2 7 5 4 8 9 13 13 14 9 7 8 3 9 7 7 12 6 18 26 29 30 34 33 29 31 35 34 34 28 27 24 24 33 36
6 4 6 5 8 2 3 6 6 5 4 3 4 1 2 5 2 4 8 10 10 8 9 4 4 11 15 24 27 26 28 31 29 27 27 30 27 24 24 17 15 16 21 25
3 3 5 4 6 4 2 6 5 4 2 3 3 8 6 8 10 11 12 13 13 9 9 7 5 13 18 20 24 23 23 26 23 18 10 8 9 8 3 0 1 2 3 8
3 2 1 4 5 3 5 5 6 4 4 4 3 6 7 10 10 12 12 15 10 12 18 17 14 4 15 21 25 26 21 17 18 21 17 12 10 8 6 5 7 9 9 10
8 4 2 2 3 6 9 3 2 5 3 2 3 6 14 17 12 1 6 7 11 8 16 29 36 16 21 21 21 19 27 24 23 18 15 11 8 8 8 9 11 13 17 20
3 3 4 4 2 5 5 4 2 2 5 4 4 4 18 16 8 10 10 6 3 8 18 17 15 16 22 29 30 30 25 26 22 18 15 12 9 8 9 11 13 14 15 19
4 3 9 5 5 6 5 6 3 2 6 5 4 5 10 7 5 8 9 4 4 9 12 15 23 24 26 29 31 28 26 23 19 16 13 10 9 10 11 12 15 17 19 21
0 1 2 1 4 7 10 11 6 6 4 3 3 1 8 11 15 15 12 13 12 11 12 16 17 18 22 26 29 25 24 22 19 14 14 13 14 15 15 17 18 20 23 23
0 3 3 4 4 3 6 7 7 6 1 4 5 6 3 21 16 15 15 16 12 13 11 16 21 19 22 24 27 25 25 23 20 19 20 17 15 17 19 19 21 22 25 24
1 2 3 2 4 5 10 8 8 8 8 7 7 13 11 7 16 15 13 11 10 13 16 21 22 18 19 23 24 27 26 24 24 24 20 16 16 17 16 16 18 21 25 27
5 5 4 4 8 9 5 4 8 14 9 7 8 12 12 2 9 14 13 13 13 18 19 23 21 20 23 25 26 30 28 27 27 24 21 17 15 17 17 21 22 22 23 23
5 7 4 5 6 4 6 11 12 14 13 7 9 4 6 6 7 11 12 15 19 20 21 21 23 24 24 26 29 29 29 28 31 27 22 20 18 15 14 14 15 17 18 17
Wind_Direction
281 94 228 249 223 225 265 284 189 269 181 160 216 237 248 162 216 234 242 197 177 182 173 180 187 184 181 182 188 191 189 194 192 197 198 204 208 217 229 219 211 197 197 193
26 224 225 240 266 256 242 245 198 290 223 177 177 241 231 188 209 219 195 183 180 179 169 162 173 177 180 184 189 193 191 189 195 197 198 199 211 219 213 210 213 213 206 203
180 237 213 227 261 262 252 204 187 199 222 256 86 299 183 210 186 223 181 182 178 179 178 172 169 178 184 186 193 194 194 190 194 196 195 209 218 233 230 222 222 216 213 212
212 245 238 233 244 227 274 193 217 207 155 211 161 249 251 195 211 235 211 183 184 187 185 170 173 179 187 192 196 197 196 196 195 197 201 206 209 225 234 231 217 220 215 219
241 246 208 220 231 231 244 272 171 208 191 332 166 117 274 138 221 229 228 216 190 191 186 181 177 183 189 187 195 199 198 201 199 198 203 203 214 225 217 212 207 204 214 215
232 241 190 225 246 205 207 206 20 65 119 137 237 154 235 185 220 222 226 225 202 184 187 186 183 183 186 185 185 193 196 199 198 200 205 205 210 215 210 196 198 208 213 216
300 276 269 210 254 296 110 71 338 333 345 221 259 99 231 216 212 202 206 221 210 187 187 182 181 185 183 185 187 188 192 197 203 204 209 209 215 220 209 208 206 204 218 217
168 312 196 252 194 194 183 149 159 197 224 270 322 227 254 223 202 194 198 205 208 193 192 187 185 186 181 186 186 187 193 199 204 208 212 214 217 223 221 211 214 224 220 226
169 252 264 214 233 155 226 167 192 160 100 64 251 289 316 245 258 187 186 168 194 193 183 190 183 186 184 187 189 191 194 200 206 211 215 216 218 224 226 220 217 217 220 224
220 263 247 267 153 301 168 162 104 7 207 248 283 272 233 216 231 210 159 165 202 189 156 162 173 178 186 189 192 192 196 200 208 211 216 217 220 224 228 228 226 225 228 229
193 149 264 94 194 201 24 216 61 130 139 177 231 259 220 221 157 171 188 168 149 149 156 167 176 181 182 184 191 192 195 200 204 209 215 217 222 226 229 233 232 233 236 236
199 177 224 243 230 186 186 203 167 135 246 211 172 262 308 220 179 169 159 154 131 162 150 128 137 151 185 191 194 192 195 201 206 211 212 218 224 228 233 234 236 237 241 244
354 240 225 293 335 39 159 211 193 132 80 220 163 264 346 142 162 175 160 169 156 158 109 197 137 171 205 199 200 194 193 203 208 210 210 217 222 228 233 237 240 241 240 243
75 119 154 218 223 179 90 343 277 179 131 212 214 247 266 223 171 182 121 93 64 122 165 190 193 171 192 217 207 201 196 201 208 210 211 214 222 230 235 237 238 244 253 258
66 290 308 247 241 268 164 344 326 182 237 164 247 172 195 201 183 180 172 119 111 167 223 244 194 212 218 201 204 198 197 200 206 205 210 222 229 232 238 248 251 226 227 247
354 319 12 315 303 173 284 296 306 296 240 162 194 228 163 200 137 138 124 157 166 178 188 239 207 234 197 192 192 183 192 201 200 203 212 227 236 239 246 253 262 257 248 236
46 34 9 291 324 353 346 226 243 271 112 182 183 226 172 159 190 176 148 154 166 135 97 52 332 188 169 158 169 172 185 199 193 204 204 189 162 138 131 72 208 207 238 233
271 59 137 254 357 255 228 304 280 258 231 185 225 295 172 175 164 168 172 162 163 139 118 90 287 281 103 131 129 140 137 143 153 122 111 100 85 73 40 358 328 316 303 285
187 147 244 195 195 282 316 2 60 2 286 95 290 70 96 112 118 205 233 179 176 157 127 160 205 152 148 149 142 151 128 130 122 112 101 90 70 40 7 345 330 317 307 301
236 141 172 158 204 221 253 285 268 115 278 328 339 112 133 140 152 200 208 222 188 104 141 173 161 137 138 139 135 132 124 121 114 110 98 78 52 34 18 358 347 336 324 311
303 318 214 198 210 279 261 282 345 141 240 302 272 215 176 176 206 158 152 172 157 161 167 161 142 140 131 137 136 122 126 116 120 114 93 73 62 48 37 26 14 4 353 340
67 328 323 299 176 239 358 320 185 214 225 228 281 238 151 125 124 131 142 158 159 159 137 136 125 132 138 139 135 125 117 130 127 115 102 92 83 70 55 43 32 22 11 360
41 154 221 175 248 280 300 244 290 308 239 272 113 46 68 132 138 150 147 165 173 158 134 137 134 137 136 143 147 130 138 142 133 125 113 103 89 76 61 48 39 26 19 8
289 168 214 10 241 286 321 308 7 340 316 312 111 82 32 139 147 146 143 142 147 147 142 143 140 135 138 154 156 152 152 149 142 128 122 113 94 84 68 58 49 37 28 15
211 147 214 256 285 290 216 300 338 335 304 10 286 118 141 34 167 150 153 148 149 155 148 149 148 148 154 164 159 158 156 154 139 135 131 126 117 96 89 72 60 56 45 36
185 207 182 230 208 193 275 298 325 319 309 351 332 347 119 134 212 159 156 151 146 147 148 148 156 158 162 165 159 161 162 159 148 143 141 133 126 116 104 95 81 68 58 46